Погода в Криничном

Украина / Одесская область     45°32′09″N   28°40′04″E
темп.,
°C
ветер,
м/с
пор.,
м/с
влажн.,
%
обл.,
%
осадки,
мм/ч
давл.,
гПа
погр.,
м
13 августа, сб
сб1300:00+24ссз686231 0.0 1012355
03:00+21ссз7127345 0.0 1011327
06:00+21с61074100 0.0 1011391
09:00+22с6870100 0.0 1011460
12:00+29ссз44445 0.0 10091476
15:00+30с3440100 0.0 10081642
18:00+28в3452100 0.0 1008396
21:00+25св335982 0.0 100757
14 августа, вс
вс1400:00+23всв1172100 0.0 100726
03:00+22ссз22695 0.0 100647
06:00+20ссз34760 0.0 100675
09:00+25св22570 0.0 1006528
12:00+30с12400 0.0 10051641
15:00+33сз133065 0.0 10032721
18:00+30ю784633 0.0 1003528
21:00+24юв477032 0.0 1004163
15 августа, пн
пн1500:00+22вюв34830 0.1 100465
03:00+21св3388100 0.1 100456
06:00+20св2287100 0.0 100544
09:00+24всв0164100 0.0 1005442
12:00+29юз1143100 0.0 10051260
15:00+31зюз323484 0.0 10041732
18:00+32ю1232100 0.1 10041622
21:00+22ю81263100 1.1 1005215
16 августа, вт
вт1600:00+21юв2268100 0.8 100645
03:00+21зюз2369100 0.8 100755
06:00+20зсз11753 0.0 100744
09:00+25юз12590 0.0 1008390
12:00+30юз33400 0.0 10081221
15:00+32юз33333 0.0 10071533
18:00+32ю6533100 0.0 10071159
21:00+25ю510612 0.0 1008241
17 августа, ср
ср1700:00+24з22641 0.1 100926
03:00+23ссз45643 0.1 1008105
06:00+21с347452 0.1 100998
09:00+25ссз456188 1.6 1009317
12:00+31сз454154 0.0 10091088
15:00+34сз55314 0.0 10082324
18:00+34сз652972 0.0 10072214
21:00+28сз594225 0.2 1009158